Location: Turtle Rock Observatory
(36.6913°N, 81.9708°W)
Time: 19:12:53
(UTC-04:00)

Daily predictions for brighter satellites

Satellite Brightness Start Highest point End
(mag) Time Altitude Azimuth Time Altitude Azimuth Time Altitude Azimuth
Cosmos 2315 Rocket 4.2 20:51:34 10° SSE 20:57:35 52° E 21:03:40 10° NNE
NOSS 3-2 (A) 4.2 20:50:53 10° NNW 20:58:34 85° ENE 21:06:48 10° SSE
NOSS 3-4 (A) 4.0 20:53:12 10° SW 20:59:27 69° NW 21:05:54 10° NNE
NOSS 3-4 (C) 4.0 20:53:18 10° SW 20:59:34 70° NW 21:06:01 10° NNE
Cosmos 1812 2.7 20:55:44 10° S 20:59:36 74° E 21:03:29 10° N
USA 186 2.0 20:56:45 10° SSE 20:59:55 51° ENE 21:03:02 10° N
CENTAUR R/B 4.1 20:53:21 10° NNW 21:00:13 32° NE 21:07:29 10° ESE
Cosmos 2263 4.4 20:57:26 10° NNW 21:03:11 63° ENE 21:08:50 10° SSE
CZ-2D R/B 3.3 21:00:11 10° SSE 21:04:00 89° SW 21:07:50 10° NNW
NOSS 2-2 (C) 4.2 21:04:30 10° S 21:07:59 29° ESE 21:11:40 10° NE
Cosmos 372 Rocket 4.5 21:04:56 10° NNW 21:10:03 62° WSW 21:15:06 10° S
Spot 2 Rocket 3.6 21:05:14 10° S 21:10:17 81° WSW 21:15:21 10° NNW
Cosmos 1536 Rocket 4.2 21:10:10 10° SSE 21:14:05 34° E 21:17:59 10° NNE
ASTRO E2 3.4 21:11:59 10° WSW 21:15:39 35° S 21:19:14 10° ESE
Helios 1A 3.0 21:20:29 10° SSE 21:24:40 64° ENE 21:28:51 10° N
Resurs 1-3 4.5 21:21:49 10° S 21:26:04 50° W 21:30:21 10° NNW
PSLV R/B 4.3 21:25:04 10° W 21:28:03 41° N 21:31:04 10° ENE
Resurs 01 Rocket 3.0 21:25:47 10° SSW 21:29:56 39° W 21:34:07 10° NNW
Envisat 3.0 21:27:07 10° SSE 21:32:12 81° ENE 21:37:17 10° N
Cosmos 292 Rocket 3.8 21:27:29 10° SSW 21:32:19 86° WNW 21:37:10 10° NNE
Cosmos 1544 Rocket 3.5 21:29:42 10° N 21:34:03 83° E 21:38:22 10° S
SPOT 5 4.5 21:34:31 12° E 21:36:35 16° ENE 21:39:09 10° NNE
Iridium 4 Rocket 3.9 21:34:24 10° N 21:39:21 66° W 21:44:44 10° S
Cosmos 1666 4.0 21:37:42 10° NNE 21:40:46 23° ENE 21:42:13 19° ESE
Meteor 1-19 Rocket 4.4 21:41:06 10° S 21:46:49 59° E 21:52:28 10° NNE
Cosmos 1025 Rocket 4.3 21:45:55 19° ESE 21:47:07 21° E 21:50:21 10° NE
ASTEX 1 3.9 21:43:58 17° SE 21:47:21 42° ENE 21:51:56 10° N
RESURS DK-1 4.3 21:48:20 10° SW 21:52:05 33° WNW 21:55:52 10° N
Aureole 3 Rocket 4.0 21:46:56 10° S 21:54:16 66° E 21:59:27 10° NNE
NOSS 2-2 (E) 3.8 21:52:43 10° SW 21:56:40 68° WNW 22:01:10 10° NNE
Cosmos 1455 Rocket 3.6 21:55:14 10° NNW 21:59:31 58° W 22:03:42 10° S
Cosmos 923 Rocket 4.0 21:56:15 10° SSW 22:01:34 86° ESE 22:06:55 10° NNE
Cosmos 1975 3.8 21:58:06 10° NNW 22:02:01 47° W 22:05:55 10° SSW
Cosmos 2369 Rocket 4.0 21:57:19 10° NW 22:02:02 27° WSW 22:06:44 10° SSW
Cosmos 405 Rocket 2.5 21:59:12 12° S 22:02:35 88° ESE 22:06:23 10° N
Cosmos 1346 2.6 22:03:17 39° S 22:04:09 77° E 22:06:55 10° NNE
Cosmos 1238 Rocket 4.3 22:00:12 15° SSE 22:05:39 56° E 22:12:10 10° NNE
Helios 1B rocket 4.1 22:02:25 10° N 22:06:12 36° WNW 22:09:59 10° SW
Cosmos 1656 Rocket 3.6 22:01:41 10° NNW 22:07:08 70° ENE 22:10:13 26° SE
YAOGAN 6 2.6 22:05:25 25° S 22:07:21 75° W 22:10:51 10° NNW
Tiangong 2 1.1 22:05:03 10° SW 22:08:08 54° SSE 22:08:38 47° ESE
H-2A R/B 4.4 22:08:01 10° ENE 22:08:59 11° ENE 22:10:09 10° NE
MetOp-A 4.3 22:06:11 25° SE 22:09:11 56° ENE 22:14:25 10° N
Meteor 1-13 Rocket 4.4 22:04:51 10° SSW 22:10:48 80° W 22:16:46 10° N
Cosmos 1939 Rocket 4.1 22:09:19 11° SSW 22:12:41 37° W 22:16:18 10° NNW
ISS -1.3 22:09:45 10° SSW 22:09:54 11° SSW 22:09:54 11° SSW
COSMOS 2455 3.2 22:08:00 10° NW 22:13:54 60° WSW 22:18:01 20° S
Cosmos 1441 Rocket 3.1 22:15:21 37° SSE 22:16:38 65° E 22:20:20 10° NNE
Cosmos 1943 Rocket 3.4 22:15:56 10° NW 22:21:00 36° WSW 22:25:30 12° SSW
Cosmos 2327 Rocket 4.4 22:16:53 10° N 22:23:05 90° NW 22:27:15 23° S
OAO 2 Rocket 3.2 22:18:11 10° WSW 22:23:06 67° S 22:25:27 31° E
ERS-1 Rocket 3.0 22:21:30 25° S 22:24:28 75° WSW 22:29:30 10° NNW
H-2A R/B 2.8 22:24:04 29° E 22:25:22 34° ENE 22:29:51 10° N
NOAA 11 4.1 22:22:31 29° SSE 22:25:28 84° ENE 22:30:55 10° NNW
COSMOS 2406 3.5 22:20:50 10° SSW 22:26:32 68° WNW 22:32:15 10° NNE
Okean 1-7 Rocket 3.5 22:25:22 34° S 22:27:16 76° E 22:31:45 10° N
USA 267 3.9 22:27:09 10° ENE 22:32:18 30° ESE 22:32:18 30° ESE
Cosmos 2112 Rocket 4.2 22:29:17 10° SSW 22:34:30 73° WNW 22:39:43 10° NNE
ARGOS 3.1 22:32:23 37° SSE 22:34:34 73° ENE 22:39:59 10° N
CZ-3B Rocket 4.2 22:34:20 10° SSW 22:53:53 - ESE 22:35:28 15° SSW
Cosmos 2082 Rocket 3.7 22:43:04 20° E 22:43:04 20° E 22:45:57 10° NE
DNEPR-1 R/B 3.5 22:38:47 10° NNW 22:43:04 74° ENE 22:43:52 57° ESE
Cosmos 1743 4.4 22:39:52 10° NNW 22:43:17 29° W 22:45:14 19° SW
Cosmos 1892 Rocket 3.9 22:44:34 47° E 22:44:34 47° E 22:48:43 10° NNE
SL-24 DEB 4.2 22:44:02 54° ESE 22:44:41 60° E 22:49:14 10° N
Intercosmos 24 3.5 22:42:16 10° N 22:46:14 88° E 22:46:21 84° SSE
Cosmos 2181 Rocket 4.2 22:46:01 40° SE 22:47:59 55° E 22:54:09 10° NNE
Okean 2 3.2 22:48:38 70° S 22:49:05 89° W 22:53:12 10° N
CENTAUR R/B 3.3 22:43:32 10° NW 22:51:32 68° WSW 22:55:42 33° S
SL-27 R/B 3.7 22:50:51 26° SW 22:52:24 42° WNW 22:55:55 10° N
USA 245 4.1 22:54:50 34° NW 22:54:50 34° NW 22:56:28 10° NNW
Cosmos 2228 4.2 22:50:31 10° NNE 22:53:47 29° ENE 22:53:47 29° ENE
YAOGAN 11 4.5 22:54:49 45° SW 22:55:43 55° W 22:59:58 10° NNW
ASTRO E2 4.3 22:52:14 10° WSW 22:54:11 24° SW 22:54:11 24° SW
Aureole 1 Rocket 4.3 22:53:35 14° SW 22:55:58 27° WNW 22:58:41 10° N
Cosmos 1437 Rocket 2.9 22:54:07 10° N 22:57:30 65° NNE 22:57:30 65° NNE
Cosmos 921 Rocket 4.0 22:56:56 10° N 23:00:46 34° ENE 23:00:46 34° ENE
Cosmos 1606 Rocket 3.4 22:57:23 10° N 23:01:41 81° ENE 23:01:41 81° ENE
Cosmos 2056 Rocket 3.5 22:58:45 10° N 23:03:52 58° ENE 23:04:17 56° E
Cosmos 405 4.0 23:01:16 10° NNW 23:04:29 42° W 23:04:29 42° W
Cosmos 1697 Rocket 4.3 23:07:00 10° N 23:11:12 21° NE 23:12:12 20° ENE
Cosmos 1726 Rocket 3.5 23:08:45 10° N 23:12:47 77° N 23:12:47 77° N
SPOT 5 3.5 23:13:46 37° WSW 23:14:19 39° W 23:18:24 10° NNW
Cosmos 1295 Rocket 4.4 23:09:10 10° N 23:15:21 79° E 23:16:35 59° SSE
SPOT 1/Viking Rocket 3.7 23:15:21 54° SSW 23:16:16 64° WSW 23:21:24 10° NNW
Cosmos 2058 Rocket 3.3 23:12:36 10° N 23:16:28 62° NE 23:16:28 62° NE
Landsat 7 3.7 23:17:21 88° SE 23:17:24 89° E 23:22:11 10° NNW
CARTOSAT-1 4.0 23:19:44 55° NNE 23:19:44 55° NNE 23:23:23 10° N
SL-19 R/B 4.0 23:14:04 10° NNE 23:19:21 67° E 23:19:21 67° E
CZ-4B R/B 4.3 23:16:08 10° NNE 23:19:54 38° ENE 23:19:54 38° ENE
SL-08 RB Rocket 4.5 23:20:54 40° WSW 23:21:18 41° W 23:25:33 10° NNW
Cosmos 839 Rocket 4.5 23:16:55 10° NNW 23:23:31 66° ENE 23:25:33 48° ESE
Cosmos 1833 Rocket 3.1 23:28:30 47° ENE 23:28:30 47° ENE 23:32:58 10° NNE
Cosmos 1066 Rocket 4.0 23:28:37 74° E 23:28:37 74° E 23:34:07 10° NNE
Terra 1.9 23:32:52 75° N 23:32:52 75° N 23:37:15 10° NNW
Cosmos 1452 Rocket 4.1 23:31:09 10° N 23:35:54 45° ENE 23:35:54 45° ENE
Cosmos 1656 4.1 23:31:02 10° N 23:36:13 46° ENE 23:36:13 46° ENE
SL-8 Rocket 3.9 23:35:38 10° N 23:41:54 85° W 23:42:35 72° SSW
H-2A R/B 2.7 23:45:08 56° NW 23:45:08 56° NW 23:48:53 10° NNW
Cosmos 2366 rocket 3.8 23:39:13 10° N 23:45:24 75° E 23:45:36 74° ESE
